DW4464 Weather Reports


time (UTC)temp
C
wind
direction
speed
KPH
gust
KPH
rain 1hr
cm
rain 24hr
cm
rain mn
cm
humidity
%
barometer
mb
20260506134537 11 0 0.0 0.0 0.00 0.00 0.00 95 1019.7
20260506133040 11 0 0.0 0.0 0.00 0.00 0.00 95 1019.7
20260506131537 11 0 0.0 0.0 0.00 0.00 0.00 95 1019.7
20260506130037 11 0 0.0 0.0 0.00 0.00 0.00 95 1019.6
20260506124536 11 0 0.0 0.0 0.00 0.00 0.00 95 1019.5
20260506123038 11 0 0.0 0.0 0.00 0.00 0.00 95 1019.4
20260506121537 11 0 0.0 0.0 0.00 0.00 0.00 95 1019.1
20260506120041 11 0 0.0 0.0 0.00 0.00 0.00 95 1019.2
20260506114542 11 0 0.0 0.0 0.00 0.00 0.00 95 1019.1
20260506113037 11 0 0.0 0.0 0.00 0.00 0.00 95 1019.1
20260506111541 11 0 0.0 0.0 0.00 0.00 0.00 94 1018.9
20260506110044 11 0 0.0 0.0 0.00 0.00 0.00 94 1019.1
20260506104538 11 0 0.0 0.0 0.00 0.00 0.00 94 1018.8
20260506103037 11 0 0.0 0.0 0.00 0.00 0.00 94 1018.8
20260506101550 11 0 0.0 0.0 0.00 0.00 0.00 94 1018.6
20260506100035 11 0 0.0 0.0 0.00 0.00 0.00 94 1018.7
20260506094546 11 0 0.0 0.0 0.00 0.00 0.00 94 1018.6
20260506093039 11 0 0.0 0.0 0.00 0.00 0.00 94 1018.6
20260506091537 11 0 0.0 0.0 0.00 0.00 0.00 93 1018.7
20260506090038 11 0 0.0 0.0 0.00 0.00 0.00 93 1018.6
20260506084537 11 0 0.0 0.0 0.00 0.03 0.00 93 1018.7
20260506083036 11 0 0.0 0.0 0.00 0.03 0.00 93 1018.7
20260506081535 11 0 0.0 0.0 0.00 0.03 0.00 92 1018.8
20260506073044 12 0 0.0 3.2 0.00 0.05 0.00 91 1018.6
20260506071548 12 0 0.0 1.6 0.00 0.05 0.00 91 1018.3
20260506061537 12 0 0.0 0.0 0.00 0.15 0.05 92 1018.0
20260506044537 12 0 0.0 0.0 0.00 0.43 0.05 90 1017.3
20260506043037 12 97 0.0 1.6 0.00 0.43 0.05 90 1017.2
20260506041546 12 0 0.0 0.0 0.00 0.43 0.05 89 1017.1
20260506040038 12 0 0.0 0.0 0.00 0.43 0.05 89 1016.5
20260506034542 13 0 0.0 0.0 0.00 0.69 0.05 88 1016.6
20260506033038 13 0 0.0 0.0 0.00 0.69 0.05 88 1016.5
20260506031538 13 0 0.0 0.0 0.00 0.69 0.05 87 1016.3
20260506030036 13 0 0.0 0.0 0.00 0.69 0.05 86 1016.0
20260506024540 13 0 0.0 0.0 0.00 0.99 0.05 86 1015.9
20260506023033 13 0 0.0 1.6 0.00 0.99 0.05 86 1015.7
20260506021537 13 0 0.0 3.2 0.00 0.99 0.05 85 1015.6
20260506020037 13 0 0.0 4.8 0.00 0.99 0.05 84 1015.3
20260506014545 13 109 1.6 6.4 0.00 1.22 0.05 84 1015.5
20260506013039 13 96 0.0 6.4 0.00 1.22 0.05 84 1015.6
20260506011541 13 77 1.6 4.8 0.00 1.22 0.05 84 1015.6
20260506010035 13 82 1.6 4.8 0.00 1.22 0.05 84 1015.5
20260506004542 13 93 0.0 4.8 0.00 1.45 0.05 85 1015.4
20260506003037 13 0 0.0 1.6 0.00 1.45 0.05 85 1015.3
20260506001549 13 0 0.0 3.2 0.00 1.45 0.05 84 1015.3
20260506000044 13 0 0.0 3.2 0.00 1.45 0.05 83 1015.2
20260505234546 13 226 0.0 3.2 0.00 1.78 0.05 83 1015.0
20260505233037 13 0 0.0 3.2 0.00 1.78 0.05 83 1015.1
20260505231548 13 0 0.0 1.6 0.00 1.78 0.05 83 1015.0
20260505230038 13 0 0.0 3.2 0.00 1.78 0.05 83 1015.1
20260505224540 14 0 0.0 1.6 0.00 1.93 0.05 83 1015.0
20260505223042 14 75 0.0 3.2 0.00 1.93 0.05 82 1015.1
20260505221541 14 0 0.0 3.2 0.00 1.93 0.05 83 1015.2
20260505220041 14 0 0.0 6.4 0.00 1.93 0.05 81 1015.3
20260505214556 14 271 0.0 4.8 0.00 2.08 0.05 80 1015.4
20260505213051 14 210 0.0 6.4 0.00 2.08 0.05 80 1015.4
20260505211538 13 117 0.0 8.0 0.00 2.08 0.05 83 1015.4
20260505210036 14 269 0.0 4.8 0.00 2.08 0.05 82 1015.4
20260505204538 13 0 1.6 11.3 0.00 2.08 0.05 82 1015.4
20260505203046 13 252 1.6 8.0 0.00 2.08 0.05 82 1015.4
20260505201549 13 245 3.2 9.7 0.00 2.08 0.05 83 1015.4
20260505200037 13 226 1.6 8.0 0.00 2.08 0.05 84 1015.4
20260505194540 13 214 4.8 9.7 0.00 2.21 0.05 84 1015.6
20260505193045 13 257 1.6 4.8 0.00 2.21 0.05 84 1015.5
20260505191548 13 231 3.2 9.7 0.00 2.21 0.05 83 1015.5
20260505190044 13 260 4.8 9.7 0.00 2.21 0.05 80 1015.6
20260505184540 13 0 0.0 8.0 0.00 2.24 0.05 82 1015.3
20260505183047 13 304 1.6 6.4 0.00 2.24 0.05 81 1015.4
20260505181536 13 230 4.8 9.7 0.00 2.24 0.05 83 1015.3
20260505180040 13 240 1.6 6.4 0.00 2.24 0.05 83 1015.2
20260505174542 12 77 0.0 6.4 0.00 2.26 0.05 87 1015.1
20260505173041 12 251 1.6 4.8 0.00 2.26 0.05 88 1014.9
20260505171541 12 0 0.0 6.4 0.00 2.26 0.05 91 1015.0
20260505170037 11 94 0.0 3.2 0.00 2.26 0.05 92 1015.2
20260505164539 11 0 0.0 3.2 0.00 2.39 0.05 94 1015.1
20260505163038 10 242 0.0 4.8 0.00 2.39 0.05 95 1015.0
20260505161538 10 0 0.0 3.2 0.00 2.39 0.05 95 1015.0
20260505153037 9 0 0.0 1.6 0.00 2.39 0.05 96 1014.9
20260505151533 9 223 0.0 4.8 0.00 2.39 0.05 96 1014.7